OPS 5798 DEB, 903

Orbit data source: Space-Track

OPS 5798 DEB, 903 is space debris in LEO originally from a launch on Tue, 06 Oct 1964 UTC launched from the Air Force Western Test Range (AFWTR). Debris objects in space refer to the collection of defunct objects orbiting the Earth. Examples of debris include non-operational satellites, rocket bodies, and fragments generated from explosions, collisions, or faulty payload assembly.

Loading next visibility...
Identifier
903, 1964-063F
Orbit
LEO
Last TLE update
1 day ago
Origin
Manufacturer
Unknown
Mission
Spacecraft
Bus & Motor
Unknown
Mass
Unknown
Launch date (UTC)
1964-10-06 (61 years ago)
Launch vehicle
Unknown
Launch site
Air Force Western Test Range (AFWTR)
Object type
Payload
Rocket body
Debris
Shape & HBR
Unknown
Radar Cross Section
Small (<0.1 m²)

Expand to show TLE details & history

TLE from 1 day ago
0 OPS 5798 DEB
1 00903U 64063F   25128.32624800  .00001075  00000-0  10258-2 0  9995
2 00903  90.2186  61.6495 0019906 261.4915 261.6192 13.80015570 18516
Epoch: 2025-05-08T07:49Z
Definitive object data (Epoch: 2025-05-08T07:49:47.827Z)
Latitude
17.10006°
Longitude
-102.13123°
Altitude
968.38 km
Speed
7.368 km/s
True Right ascension
16h 06m 51s
True Declination
17° 00' 23"
Sunlit
Object was in full shadow at TLE epoch
Visualization TLE readout
Latitude
67.63994°
Longitude
-101.64615°
Altitude
987.731 km
Speed
7.358 km/s
Apparent Right ascension
04h 02m 09s
Apparent Declination
52° 26' 47"
Sunlit
Object is in daylight
Visualization observer readout
Local Sidereal Time
16:05:58
Azimuth
0.582° NNE
Elevation
2.366°
Doppler factor
1
Orbital elements
Apogee altitude
975.447 km
Perigee altitude
946.229 km
Semi-major axis
7,338.975 km
Eccentricity
0.0019906
Inclination
90.2186°
RAAN
61.6495°
Arg. of periapsis
261.4915°
True anomaly
261.39361°
Mean anomaly
261.6192°
Eccentric anomaly
261.5064°
Mean motion
3.45215 °/min
BSTAR
0.0010258
Orbital period
104.28 mins
Loading maneuver chart data...
Loading SW <> Apogee altitude chart data...
Loading historical data...
Loading historical data...
Loading historical data...
Loading historical data...
Loading historical data...
Loading historical data...
Loading historical data...

OPS 5798 DEB Visibility forecast

Observer location: undefined°, undefined°

Span
Click to sort rows by Start time (UTC) header in descending order
Start Az.
Max El. time (UTC)
Max El. Az.
Max El.
End time (UTC)
End Az.
12 mins2025-05-09 07:58:53.050Z0.095° NNE2025-05-09 08:04:53.050Z276.669° WNW44.605°2025-05-09 08:10:53.050Z188.699° SSW
10 mins2025-05-09 19:41:53.050Z169.159° S2025-05-09 19:46:53.050Z61.507° ENE44.264°2025-05-09 19:51:53.050Z1.04° NNE
4 mins2025-05-09 21:29:53.050Z265.399° W2025-05-09 21:31:53.050Z286.807° WNW14.047°2025-05-09 21:33:53.050Z307.261° NW
7 mins2025-05-10 06:38:53.050Z42.287° NE2025-05-10 06:41:53.050Z78.759° E21.542°2025-05-10 06:45:53.050Z126.139° SE
|